Time,TemperatureF,DewpointF,PressureIn,WindDirection,WindDirectionDegrees,WindSpeedMPH,WindSpeedGustMPH,Humidity,HourlyPrecipIn,Conditions,Clouds,dailyrainin,SoftwareType,DateUTC
2013-02-14 00:01:00,43.0,43.0,30.69,NW,315,0.0,0.0,99,0.00,,,-99.99,,2013-02-14 08:01:00,
2013-02-14 00:11:00,43.0,43.0,30.69,NW,315,0.0,0.0,99,0.00,,,-99.99,,2013-02-14 08:11:00,
2013-02-14 00:21:00,43.0,43.0,30.69,South,180,0.0,0.0,99,0.00,,,-99.99,,2013-02-14 08:21:00,
2013-02-14 00:31:00,43.0,43.0,30.70,West,270,0.0,1.0,99,0.00,,,-99.99,,2013-02-14 08:31:00,
2013-02-14 00:43:00,43.0,43.0,30.70,West,270,0.0,1.0,99,0.00,,,-99.99,,2013-02-14 08:43:00,
2013-02-14 00:52:00,43.0,43.0,30.71,West,270,0.0,0.0,99,0.00,,,-99.99,,2013-02-14 08:52:00,
2013-02-14 01:01:00,43.0,43.0,30.70,NW,315,0.0,1.0,99,0.00,,,-99.99,,2013-02-14 09:01:00,
2013-02-14 01:11:00,43.0,43.0,30.70,NW,315,0.0,1.0,99,0.00,,,-99.99,,2013-02-14 09:11:00,
2013-02-14 01:21:00,43.0,43.0,30.70,SW,225,0.0,0.0,99,0.00,,,-99.99,,2013-02-14 09:21:00,
2013-02-14 01:31:00,43.0,43.0,30.70,NW,315,0.0,0.0,99,0.00,,,-99.99,,2013-02-14 09:31:00,
2013-02-14 01:41:00,43.0,43.0,30.70,NW,315,0.0,0.0,99,0.00,,,-99.99,,2013-02-14 09:41:00,
2013-02-14 01:52:00,43.0,43.0,30.71,SW,225,0.0,1.0,99,0.00,,,-99.99,,2013-02-14 09:52:00,
2013-02-14 02:01:00,43.0,43.0,30.70,North,360,0.0,1.0,99,0.00,,,-99.99,,2013-02-14 10:01:00,
2013-02-14 02:11:00,43.0,43.0,30.70,NE,45,0.0,2.0,99,0.00,,,-99.99,,2013-02-14 10:11:00,
2013-02-14 02:21:00,43.0,43.0,30.70,NE,45,0.0,2.0,99,0.00,,,-99.99,,2013-02-14 10:21:00,
2013-02-14 02:31:00,43.0,43.0,30.70,West,270,0.0,2.0,99,0.00,,,-99.99,,2013-02-14 10:31:00,
2013-02-14 02:41:00,43.0,43.0,30.70,West,270,0.0,2.0,99,0.00,,,-99.99,,2013-02-14 10:41:00,
2013-02-14 02:52:00,43.0,43.0,30.70,NW,315,0.0,2.0,99,0.00,,,-99.99,,2013-02-14 10:52:00,
2013-02-14 03:01:00,43.0,43.0,30.70,NW,315,0.0,3.0,99,0.00,,,-99.99,,2013-02-14 11:01:00,
2013-02-14 03:11:00,43.0,43.0,30.70,NW,315,0.0,3.0,99,0.00,,,-99.99,,2013-02-14 11:11:00,
2013-02-14 03:21:00,43.0,43.0,30.69,East,90,0.0,6.0,99,0.00,,,-99.99,,2013-02-14 11:21:00,
2013-02-14 03:31:00,42.0,42.0,30.68,NW,315,0.0,4.0,99,0.00,,,-99.99,,2013-02-14 11:31:00,
2013-02-14 03:41:00,42.0,42.0,30.68,NW,315,0.0,4.0,99,0.00,,,-99.99,,2013-02-14 11:41:00,
2013-02-14 03:52:00,42.0,42.0,30.68,North,360,2.0,4.0,99,0.00,,,-99.99,,2013-02-14 11:52:00,
2013-02-14 04:01:00,42.0,42.0,30.68,West,270,1.0,5.0,99,0.00,,,-99.99,,2013-02-14 12:01:00,
2013-02-14 04:11:00,42.0,42.0,30.68,West,270,1.0,5.0,99,0.00,,,-99.99,,2013-02-14 12:11:00,
2013-02-14 04:21:00,42.0,42.0,30.68,North,360,0.0,3.0,99,0.00,,,-99.99,,2013-02-14 12:21:00,
2013-02-14 04:32:00,42.0,42.0,30.68,NW,315,2.0,6.0,99,0.00,,,-99.99,,2013-02-14 12:32:00,
2013-02-14 04:41:00,42.0,42.0,30.68,NW,315,2.0,6.0,99,0.00,,,-99.99,,2013-02-14 12:41:00,
2013-02-14 04:53:00,42.0,42.0,30.68,West,270,0.0,5.0,99,0.00,,,-99.99,,2013-02-14 12:53:00,
2013-02-14 05:01:00,42.0,42.0,30.68,SW,225,0.0,4.0,99,0.00,,,-99.99,,2013-02-14 13:01:00,
2013-02-14 05:11:00,42.0,42.0,30.68,SW,225,0.0,4.0,99,0.00,,,-99.99,,2013-02-14 13:11:00,
2013-02-14 05:21:00,41.0,41.0,30.68,NW,315,0.0,2.0,99,0.00,,,-99.99,,2013-02-14 13:21:00,
2013-02-14 05:31:00,42.0,42.0,30.69,North,360,0.0,4.0,99,0.00,,,-99.99,,2013-02-14 13:31:00,
2013-02-14 05:41:00,42.0,42.0,30.69,North,360,0.0,4.0,99,0.00,,,-99.99,,2013-02-14 13:41:00,
2013-02-14 05:51:00,42.0,42.0,30.70,East,90,0.0,0.0,99,0.00,,,-99.99,,2013-02-14 13:51:00,
2013-02-14 06:01:00,42.0,42.0,30.70,NW,315,0.0,2.0,99,0.00,,,-99.99,,2013-02-14 14:01:00,
2013-02-14 06:11:00,42.0,42.0,30.70,NW,315,0.0,2.0,99,0.00,,,-99.99,,2013-02-14 14:11:00,
2013-02-14 06:21:00,42.0,42.0,30.70,SW,225,0.0,2.0,99,0.00,,,-99.99,,2013-02-14 14:21:00,
2013-02-14 06:31:00,42.0,42.0,30.70,NW,315,0.0,2.0,99,0.00,,,-99.99,,2013-02-14 14:31:00,
2013-02-14 06:41:00,42.0,42.0,30.70,NW,315,0.0,2.0,99,0.00,,,-99.99,,2013-02-14 14:41:00,
2013-02-14 06:52:00,42.0,42.0,30.69,NW,315,0.0,2.0,99,0.00,,,-99.99,,2013-02-14 14:52:00,
2013-02-14 07:01:00,42.0,42.0,30.69,NE,45,1.0,2.0,99,0.00,,,-99.99,,2013-02-14 15:01:00,
2013-02-14 07:11:00,42.0,42.0,30.69,NE,45,1.0,2.0,99,0.00,,,-99.99,,2013-02-14 15:11:00,
2013-02-14 07:21:00,42.0,42.0,30.70,East,90,0.0,3.0,99,0.00,,,-99.99,,2013-02-14 15:21:00,
2013-02-14 07:31:00,42.0,42.0,30.70,NW,315,0.0,1.0,99,0.00,,,-99.99,,2013-02-14 15:31:00,
2013-02-14 07:41:00,42.0,42.0,30.70,NW,315,0.0,1.0,99,0.00,,,-99.99,,2013-02-14 15:41:00,
2013-02-14 07:52:00,42.0,42.0,30.70,East,90,0.0,2.0,99,0.00,,,-99.99,,2013-02-14 15:52:00,
2013-02-14 08:01:00,42.0,42.0,30.71,SW,225,0.0,1.0,99,0.00,,,-99.99,,2013-02-14 16:01:00,
2013-02-14 08:11:00,42.0,42.0,30.71,SW,225,0.0,1.0,99,0.00,,,-99.99,,2013-02-14 16:11:00,
2013-02-14 08:21:00,42.0,42.0,30.71,SW,225,0.0,1.0,99,0.00,,,-99.99,,2013-02-14 16:21:00,
2013-02-14 08:31:00,42.0,42.0,30.72,South,180,0.0,1.0,99,0.00,,,-99.99,,2013-02-14 16:31:00,
2013-02-14 08:41:00,42.0,42.0,30.72,South,180,0.0,1.0,99,0.00,,,-99.99,,2013-02-14 16:41:00,
2013-02-14 08:52:00,42.0,42.0,30.73,West,270,0.0,1.0,99,0.00,,,-99.99,,2013-02-14 16:52:00,
2013-02-14 09:01:00,43.0,43.0,30.73,West,270,0.0,1.0,99,0.00,,,-99.99,,2013-02-14 17:01:00,
2013-02-14 09:11:00,43.0,43.0,30.73,West,270,0.0,1.0,99,0.00,,,-99.99,,2013-02-14 17:11:00,
2013-02-14 09:21:00,43.0,43.0,30.74,NW,315,0.0,0.0,99,0.00,,,-99.99,,2013-02-14 17:21:00,
2013-02-14 09:31:00,43.0,43.0,30.73,NW,315,0.0,0.0,99,0.00,,,-99.99,,2013-02-14 17:31:00,
2013-02-14 09:41:00,43.0,43.0,30.73,NW,315,0.0,0.0,99,0.00,,,-99.99,,2013-02-14 17:41:00,
2013-02-14 09:52:00,43.0,43.0,30.73,North,360,0.0,3.0,99,0.00,,,-99.99,,2013-02-14 17:52:00,
2013-02-14 10:01:00,44.0,44.0,30.73,NNE,22,1.0,3.0,99,0.00,,,-99.99,,2013-02-14 18:01:00,
2013-02-14 10:11:00,44.0,44.0,30.73,NNE,22,1.0,3.0,99,0.00,,,-99.99,,2013-02-14 18:11:00,
2013-02-14 10:22:00,44.0,44.0,30.73,NW,315,0.0,4.0,99,0.00,,,-99.99,,2013-02-14 18:22:00,
2013-02-14 10:31:00,44.0,44.0,30.73,NW,315,0.0,4.0,99,0.00,,,-99.99,,2013-02-14 18:31:00,
2013-02-14 10:41:00,44.0,44.0,30.73,NW,315,0.0,4.0,99,0.00,,,-99.99,,2013-02-14 18:41:00,
2013-02-14 10:52:00,45.0,45.0,30.74,NE,45,1.0,4.0,99,0.00,,,-99.99,,2013-02-14 18:52:00,
2013-02-14 11:01:00,45.0,44.0,30.73,North,360,1.0,5.0,98,0.00,,,-99.99,,2013-02-14 19:01:00,
2013-02-14 11:11:00,45.0,44.0,30.73,North,360,1.0,5.0,98,0.00,,,-99.99,,2013-02-14 19:11:00,
2013-02-14 11:21:00,45.0,44.0,30.73,NW,315,0.0,4.0,98,0.00,,,-99.99,,2013-02-14 19:21:00,
2013-02-14 11:31:00,46.0,45.0,30.73,NE,45,1.0,4.0,97,0.00,,,-99.99,,2013-02-14 19:31:00,
2013-02-14 11:41:00,46.0,45.0,30.73,NE,45,1.0,4.0,97,0.00,,,-99.99,,2013-02-14 19:41:00,
2013-02-14 11:51:00,46.0,45.0,30.74,NE,45,1.0,5.0,96,0.00,,,-99.99,,2013-02-14 19:51:00,
2013-02-14 12:01:00,46.0,45.0,30.74,NW,315,1.0,4.0,96,0.00,,,-99.99,,2013-02-14 20:01:00,
2013-02-14 12:11:00,46.0,45.0,30.74,NW,315,2.0,4.0,96,0.00,,,-99.99,,2013-02-14 20:11:00,
2013-02-14 12:21:00,46.0,45.0,30.74,NW,315,2.0,4.0,96,0.00,,,-99.99,,2013-02-14 20:21:00,
2013-02-14 12:31:00,46.0,45.0,30.74,North,360,0.0,4.0,96,0.00,,,-99.99,,2013-02-14 20:31:00,
2013-02-14 12:41:00,46.0,45.0,30.74,North,360,0.0,4.0,96,0.00,,,-99.99,,2013-02-14 20:41:00,
2013-02-14 12:52:00,46.0,45.0,30.74,NE,45,0.0,6.0,96,0.00,,,-99.99,,2013-02-14 20:52:00,
2013-02-14 13:01:00,47.0,46.0,30.74,NW,315,0.0,4.0,95,0.00,,,-99.99,,2013-02-14 21:01:00,
2013-02-14 13:11:00,47.0,46.0,30.74,NW,315,0.0,4.0,95,0.00,,,-99.99,,2013-02-14 21:11:00,
2013-02-14 13:21:00,47.0,45.0,30.73,WSW,248,2.0,4.0,93,0.00,,,-99.99,,2013-02-14 21:21:00,
2013-02-14 13:31:00,48.0,45.0,30.74,ENE,68,1.0,4.0,91,0.00,,,-99.99,,2013-02-14 21:31:00,
2013-02-14 13:41:00,48.0,45.0,30.74,ENE,68,1.0,4.0,91,0.00,,,-99.99,,2013-02-14 21:41:00,
2013-02-14 13:52:00,49.0,46.0,30.75,NW,315,1.0,4.0,91,0.00,,,-99.99,,2013-02-14 21:52:00,
2013-02-14 14:01:00,49.0,46.0,30.74,North,360,0.0,4.0,90,0.00,,,-99.99,,2013-02-14 22:01:00,
2013-02-14 14:11:00,49.0,46.0,30.74,North,360,2.0,4.0,89,0.00,,,-99.99,,2013-02-14 22:11:00,
2013-02-14 14:21:00,49.0,46.0,30.74,North,360,2.0,4.0,89,0.00,,,-99.99,,2013-02-14 22:21:00,
2013-02-14 14:31:00,49.0,46.0,30.74,East,90,2.0,5.0,89,0.00,,,-99.99,,2013-02-14 22:31:00,
2013-02-14 14:41:00,49.0,46.0,30.74,East,90,2.0,5.0,89,0.00,,,-99.99,,2013-02-14 22:41:00,
2013-02-14 14:51:00,48.0,45.0,30.74,East,90,0.0,3.0,91,0.00,,,-99.99,,2013-02-14 22:51:00,
2013-02-14 15:01:00,48.0,46.0,30.74,SE,135,0.0,3.0,92,0.00,,,-99.99,,2013-02-14 23:01:00,
2013-02-14 15:11:00,48.0,46.0,30.74,SE,135,0.0,3.0,92,0.00,,,-99.99,,2013-02-14 23:11:00,
2013-02-14 15:21:00,48.0,46.0,30.73,NE,45,0.0,3.0,92,0.00,,,-99.99,,2013-02-14 23:21:00,
2013-02-14 15:31:00,49.0,47.0,30.74,East,90,0.0,2.0,92,0.00,,,-99.99,,2013-02-14 23:31:00,
2013-02-14 15:41:00,49.0,47.0,30.74,East,90,0.0,2.0,92,0.00,,,-99.99,,2013-02-14 23:41:00,
2013-02-14 15:52:00,48.0,46.0,30.74,North,360,0.0,2.0,92,0.00,,,-99.99,,2013-02-14 23:52:00,
2013-02-14 16:01:00,47.0,45.0,30.74,NE,45,0.0,4.0,93,0.00,,,-99.99,,2013-02-15 00:01:00,
2013-02-14 16:11:00,47.0,45.0,30.74,NE,45,0.0,4.0,93,0.00,,,-99.99,,2013-02-15 00:11:00,
2013-02-14 16:21:00,47.0,45.0,30.75,North,360,0.0,3.0,94,0.00,,,-99.99,,2013-02-15 00:21:00,
2013-02-14 16:31:00,47.0,46.0,30.75,North,360,0.0,2.0,95,0.00,,,-99.99,,2013-02-15 00:31:00,
2013-02-14 16:41:00,47.0,46.0,30.75,North,360,0.0,2.0,95,0.00,,,-99.99,,2013-02-15 00:41:00,
2013-02-14 16:52:00,47.0,46.0,30.74,North,360,0.0,1.0,96,0.00,,,-99.99,,2013-02-15 00:52:00,
2013-02-14 17:01:00,46.0,45.0,30.74,West,270,0.0,1.0,96,0.00,,,-99.99,,2013-02-15 01:01:00,
2013-02-14 17:11:00,46.0,45.0,30.74,West,270,0.0,1.0,96,0.00,,,-99.99,,2013-02-15 01:11:00,
2013-02-14 17:21:00,46.0,45.0,30.74,NE,45,0.0,1.0,97,0.00,,,-99.99,,2013-02-15 01:21:00,
2013-02-14 17:31:00,46.0,45.0,30.74,NE,45,0.0,0.0,97,0.00,,,-99.99,,2013-02-15 01:31:00,
2013-02-14 17:41:00,46.0,45.0,30.74,NE,45,0.0,0.0,97,0.00,,,-99.99,,2013-02-15 01:41:00,
2013-02-14 17:51:00,46.0,45.0,30.74,NW,315,0.0,0.0,98,0.00,,,-99.99,,2013-02-15 01:51:00,
2013-02-14 18:01:00,46.0,45.0,30.74,NW,315,0.0,0.0,98,0.00,,,-99.99,,2013-02-15 02:01:00,
2013-02-14 18:11:00,46.0,45.0,30.74,NW,315,0.0,0.0,98,0.00,,,-99.99,,2013-02-15 02:11:00,
2013-02-14 18:21:00,46.0,45.0,30.75,NW,315,0.0,0.0,98,0.00,,,-99.99,,2013-02-15 02:21:00,
2013-02-14 18:31:00,45.0,45.0,30.75,NW,315,0.0,0.0,99,0.00,,,-99.99,,2013-02-15 02:31:00,
2013-02-14 18:41:00,45.0,45.0,30.75,NW,315,0.0,0.0,99,0.00,,,-99.99,,2013-02-15 02:41:00,
2013-02-14 18:52:00,45.0,45.0,30.75,NW,315,0.0,0.0,99,0.00,,,-99.99,,2013-02-15 02:52:00,
2013-02-14 19:01:00,45.0,45.0,30.76,NW,315,0.0,0.0,99,0.00,,,-99.99,,2013-02-15 03:01:00,
2013-02-14 19:11:00,45.0,45.0,30.76,NW,315,0.0,0.0,99,0.00,,,-99.99,,2013-02-15 03:11:00,
2013-02-14 19:21:00,45.0,45.0,30.76,NW,315,0.0,0.0,99,0.00,,,-99.99,,2013-02-15 03:21:00,
2013-02-14 19:32:00,45.0,45.0,30.75,NW,315,0.0,0.0,99,0.00,,,-99.99,,2013-02-15 03:32:00,
2013-02-14 19:41:00,45.0,45.0,30.75,NW,315,0.0,0.0,99,0.00,,,-99.99,,2013-02-15 03:41:00,
2013-02-14 19:52:00,45.0,45.0,30.75,NW,315,0.0,0.0,99,0.00,,,-99.99,,2013-02-15 03:52:00,
2013-02-14 20:01:00,45.0,45.0,30.75,NW,315,0.0,0.0,99,0.00,,,-99.99,,2013-02-15 04:01:00,
2013-02-14 20:11:00,45.0,45.0,30.75,NW,315,0.0,0.0,99,0.00,,,-99.99,,2013-02-15 04:11:00,
2013-02-14 20:21:00,45.0,45.0,30.75,NW,315,0.0,0.0,99,0.00,,,-99.99,,2013-02-15 04:21:00,
2013-02-14 20:31:00,44.0,44.0,30.76,NW,315,0.0,0.0,99,0.00,,,-99.99,,2013-02-15 04:31:00,
2013-02-14 20:41:00,44.0,44.0,30.76,NW,315,0.0,0.0,99,0.00,,,-99.99,,2013-02-15 04:41:00,
2013-02-14 20:51:00,44.0,44.0,30.75,NW,315,0.0,0.0,99,0.00,,,-99.99,,2013-02-15 04:51:00,
2013-02-14 21:01:00,44.0,44.0,30.75,NW,315,0.0,0.0,99,0.00,,,-99.99,,2013-02-15 05:01:00,
2013-02-14 21:11:00,44.0,44.0,30.75,NW,315,0.0,0.0,99,0.00,,,-99.99,,2013-02-15 05:11:00,
2013-02-14 21:22:00,44.0,44.0,30.74,South,180,0.0,0.0,99,0.00,,,-99.99,,2013-02-15 05:22:00,
2013-02-14 21:32:00,44.0,44.0,30.75,West,270,0.0,0.0,99,0.00,,,-99.99,,2013-02-15 05:32:00,
2013-02-14 21:41:00,44.0,44.0,30.75,West,270,0.0,0.0,99,0.00,,,-99.99,,2013-02-15 05:41:00,
2013-02-14 21:52:00,43.0,43.0,30.76,West,270,0.0,0.0,99,0.00,,,-99.99,,2013-02-15 05:52:00,
2013-02-14 22:01:00,43.0,43.0,30.76,SW,225,0.0,0.0,99,0.00,,,-99.99,,2013-02-15 06:01:00,
2013-02-14 22:11:00,43.0,43.0,30.76,SW,225,0.0,0.0,99,0.00,,,-99.99,,2013-02-15 06:11:00,
2013-02-14 22:21:00,43.0,43.0,30.76,West,270,0.0,0.0,99,0.00,,,-99.99,,2013-02-15 06:21:00,
2013-02-14 22:31:00,43.0,43.0,30.76,West,270,0.0,0.0,99,0.00,,,-99.99,,2013-02-15 06:31:00,
2013-02-14 22:42:00,43.0,43.0,30.76,West,270,0.0,0.0,99,0.00,,,-99.99,,2013-02-15 06:42:00,
2013-02-14 22:52:00,43.0,43.0,30.76,West,270,0.0,0.0,99,0.00,,,-99.99,,2013-02-15 06:52:00,
2013-02-14 23:01:00,43.0,43.0,30.76,West,270,0.0,0.0,99,0.00,,,-99.99,,2013-02-15 07:01:00,
2013-02-14 23:11:00,43.0,43.0,30.76,West,270,0.0,0.0,99,0.00,,,-99.99,,2013-02-15 07:11:00,
2013-02-14 23:21:00,43.0,43.0,30.76,West,270,0.0,0.0,99,0.00,,,-99.99,,2013-02-15 07:21:00,
2013-02-14 23:31:00,43.0,43.0,30.76,West,270,0.0,0.0,99,0.00,,,-99.99,,2013-02-15 07:31:00,
2013-02-14 23:41:00,43.0,43.0,30.76,West,270,0.0,0.0,99,0.00,,,-99.99,,2013-02-15 07:41:00,